Theta_e
313 314 314 312 312 312 312 312 313 314 313 314 315 315 315 314 313 315 316 316 317 317 316 317 318 318 319 319 320 321 323 329 333 335 335 335 338 341 342 341 340 340 342 341 341 341 341 338 336 337 336 334 333 334 334 333 333 333 333 334 334 335 335 335 334 335 336 337 338 337 337 337 338 338 338 338 338 337 337 337 337 337 336 335 335 334
314 314 313 312 312 312 313 314 315 315 314 314 313 313 313 313 314 315 316 316 317 317 316 317 318 318 319 319 321 322 325 331 334 335 336 339 341 342 343 342 340 341 342 341 340 340 340 337 335 335 335 335 336 337 336 334 333 333 333 333 333 334 333 333 332 333 336 337 338 338 337 337 337 338 338 339 339 338 338 338 337 337 336 335 335 335
314 313 314 313 313 314 314 315 315 315 315 314 312 312 312 314 315 316 316 317 316 318 318 317 317 319 320 321 322 322 325 331 335 337 339 342 343 342 342 342 342 342 343 342 341 340 339 337 336 336 336 336 337 338 338 336 336 336 335 333 332 332 332 332 334 335 336 337 337 337 337 336 335 335 336 338 338 337 336 336 336 336 335 334 334 334
313 313 314 314 314 315 315 315 314 314 315 314 314 313 312 313 314 314 316 316 317 319 319 318 318 320 321 322 324 321 324 331 335 338 341 342 342 342 341 341 341 342 344 344 342 341 339 338 338 338 339 339 339 339 338 338 338 337 335 333 332 333 333 334 336 336 336 336 336 335 334 333 332 330 333 336 335 334 335 335 336 335 333 333 333 332
314 314 314 315 314 315 314 314 314 314 313 313 314 313 313 314 314 315 317 316 317 319 321 319 315 319 324 323 324 322 326 335 338 339 342 343 342 342 342 341 341 342 343 343 343 342 341 341 340 339 339 339 339 339 338 337 337 336 334 334 334 334 334 334 334 333 333 333 333 332 331 331 331 331 334 335 335 335 335 335 335 334 333 332 332 331
314 315 314 314 314 314 313 313 313 313 312 313 315 315 314 315 315 316 317 317 316 316 320 318 313 320 329 326 325 324 328 336 339 339 341 342 342 342 342 343 342 342 343 343 343 342 342 342 341 340 339 339 339 338 337 337 336 336 335 335 334 334 333 332 332 332 332 331 330 331 332 332 333 334 335 336 336 336 335 335 334 334 333 332 331 331
314 314 314 314 314 313 313 312 312 313 313 312 314 316 315 315 315 316 316 316 316 317 320 319 320 326 327 324 326 326 330 337 338 338 340 340 341 342 342 343 343 342 342 342 343 342 341 341 340 340 339 338 337 336 336 336 335 335 335 335 333 332 332 331 331 332 332 331 330 330 332 333 334 335 335 335 335 336 335 334 333 333 333 332 332 332
314 314 314 313 313 313 312 312 312 313 313 313 315 316 316 316 315 315 316 316 318 321 319 317 325 329 325 324 328 327 330 337 338 337 338 339 339 341 342 342 342 341 341 342 342 341 340 339 339 338 337 336 335 335 335 335 335 334 334 334 333 332 332 332 332 332 333 333 332 332 333 333 334 334 335 335 335 335 335 334 333 334 334 333 333 333
314 314 314 313 313 313 312 312 313 314 313 315 316 317 316 316 316 317 317 317 320 320 316 316 319 322 323 326 329 327 328 335 340 339 338 338 338 340 341 341 340 340 340 341 340 340 339 338 338 337 336 336 336 336 335 335 335 334 334 334 333 333 333 333 333 334 334 334 334 334 334 334 335 335 335 336 336 335 336 335 335 335 334 334 334 333
314 314 313 313 313 312 313 313 314 314 314 316 316 317 317 317 318 318 317 316 318 318 316 317 315 315 320 325 326 326 325 333 340 340 337 338 338 339 339 339 339 339 339 339 339 339 338 338 337 337 336 336 336 336 335 335 335 335 335 335 334 334 334 333 333 334 334 334 334 334 335 335 335 335 336 336 336 336 337 336 336 335 335 335 334 334
314 314 314 314 313 313 314 313 314 314 315 316 316 315 316 318 318 318 319 317 315 320 320 316 315 315 316 321 324 324 326 335 340 339 338 338 337 336 336 336 337 337 337 337 337 337 336 336 336 336 336 336 336 335 335 335 335 335 335 335 334 334 334 333 334 334 335 335 335 335 335 335 335 335 336 336 336 336 336 336 336 336 335 335 335 335
314 314 314 315 315 314 314 313 314 314 315 316 316 315 315 317 317 314 317 317 317 324 323 316 317 314 313 324 333 332 331 336 338 338 338 337 335 335 334 334 335 335 335 334 334 334 334 334 334 335 335 335 335 334 334 334 334 334 333 333 333 333 332 333 333 333 334 334 335 335 335 334 334 335 335 335 335 335 335 335 335 335 335 335 335 335
314 314 314 315 315 315 314 313 313 314 314 316 315 315 315 316 315 313 316 318 319 324 321 316 316 314 321 333 338 337 335 336 337 336 336 335 333 333 332 332 333 332 332 332 332 333 332 332 332 333 333 333 333 333 332 332 332 332 332 331 331 330 329 330 330 330 331 332 333 333 333 333 334 334 334 334 333 334 334 333 334 335 335 334 334 334
315 315 314 314 315 315 314 312 312 312 313 314 314 316 317 316 314 315 317 318 319 320 318 317 314 318 332 338 335 336 336 334 335 334 333 333 332 331 331 331 331 330 330 330 330 331 331 331 331 331 331 331 331 331 330 330 329 329 329 329 329 328 328 328 327 327 328 329 329 329 330 330 331 331 331 331 331 332 332 333 334 334 333 333 333 332
316 316 315 314 315 316 315 313 313 313 312 314 314 316 318 317 316 318 318 318 320 320 315 315 318 326 337 338 332 333 332 331 331 330 330 330 329 329 329 329 329 329 329 329 329 329 329 329 329 329 328 328 328 328 328 327 327 326 326 327 327 327 327 327 327 326 326 326 327 327 327 327 327 328 328 328 328 329 330 331 332 331 331 331 331 331
314 315 315 315 315 315 315 315 314 314 314 316 315 315 316 317 318 321 320 319 323 321 318 325 331 333 335 333 330 330 329 329 329 328 328 328 327 328 327 327 328 328 328 328 327 327 327 327 327 327 327 326 326 325 325 324 324 324 324 324 325 325 325 326 325 326 326 326 326 327 326 326 326 326 326 326 326 326 327 327 327 328 329 330 330 331
315 316 314 314 316 314 314 316 315 316 316 317 315 314 315 316 318 320 319 320 324 322 324 332 336 335 335 333 330 328 328 328 327 327 327 327 327 327 326 327 327 326 326 326 326 325 325 325 325 325 325 324 324 323 323 323 322 322 323 323 324 324 324 324 324 324 325 325 326 326 325 325 324 324 324 324 324 323 324 324 325 326 327 329 330 331
318 318 316 314 314 314 314 316 316 316 317 316 314 314 316 315 317 322 321 319 321 320 325 334 338 335 337 337 332 328 329 328 326 327 327 326 326 326 326 326 326 326 325 324 324 324 324 324 324 323 323 323 323 323 322 322 322 322 322 322 322 322 323 323 323 323 323 323 324 323 323 323 322 322 322 323 322 322 323 324 325 325 326 327 328 329
318 317 316 314 314 315 315 316 316 316 315 315 315 314 317 318 316 320 320 319 319 319 325 335 337 335 336 335 333 331 330 328 327 326 326 325 325 325 325 325 325 324 324 323 323 323 323 323 322 322 322 322 322 322 322 322 321 322 322 322 322 322 322 322 322 322 321 321 321 321 321 321 321 321 322 321 321 321 321 322 323 324 325 326 326 328
319 317 317 315 313 315 315 316 316 316 315 315 315 314 317 320 319 319 317 319 321 319 325 335 335 335 336 333 331 331 329 328 327 325 325 325 324 325 325 325 324 323 322 322 321 321 321 321 321 321 321 321 321 321 321 321 321 321 321 321 321 321 321 321 321 320 320 320 320 319 320 321 321 320 321 320 320 320 320 320 321 322 323 324 325 326
318 318 321 318 313 315 315 315 315 315 315 314 314 314 314 315 317 319 317 317 321 320 326 336 336 336 336 331 330 331 328 327 326 324 324 324 324 325 324 323 322 321 321 321 320 321 321 320 321 321 321 321 321 321 321 320 320 320 320 321 320 320 320 320 320 320 320 320 319 319 319 319 319 319 319 320 320 321 321 320 319 320 320 321 322 324
319 320 324 321 314 313 314 315 314 314 314 313 314 315 315 316 316 317 317 315 316 319 326 336 339 336 331 329 330 329 327 326 325 323 323 323 324 324 322 321 321 320 320 320 320 320 320 320 320 320 320 320 320 320 320 320 320 320 320 320 320 319 319 319 319 320 320 320 319 319 318 318 319 319 320 320 320 321 321 320 319 318 318 319 320 321
323 322 322 319 315 315 315 315 314 315 315 314 315 315 316 320 317 317 323 321 316 317 322 332 340 336 329 329 330 328 326 325 324 323 323 323 323 321 320 320 320 320 320 320 320 320 320 320 320 320 320 319 319 320 320 320 320 319 319 319 319 319 319 319 319 319 319 319 319 318 317 317 318 319 320 320 320 320 320 320 319 317 317 317 317 318
321 320 318 317 316 315 316 315 313 315 314 313 316 315 316 319 316 320 330 327 320 319 321 330 338 335 328 329 329 326 325 324 323 323 323 323 321 320 319 319 319 320 320 320 320 320 320 319 319 319 319 319 319 319 319 319 319 319 319 319 318 318 318 318 318 319 318 318 318 318 317 317 318 318 319 319 319 319 320 319 318 316 316 317 317 317
319 320 320 319 317 316 317 316 314 314 314 315 317 315 315 316 315 318 322 321 321 321 322 332 338 333 328 328 327 325 324 323 323 323 322 321 320 319 319 319 319 320 320 320 320 319 319 319 319 319 318 318 318 318 318 318 318 318 318 318 318 318 318 318 318 318 318 317 317 316 316 317 318 318 319 318 318 318 318 317 316 316 316 316 318 318
322 323 321 321 322 320 318 316 315 314 314 316 317 315 314 315 315 316 317 318 321 321 323 333 336 332 328 328 327 325 323 323 323 322 321 320 319 319 319 319 319 319 319 318 318 318 318 318 318 318 317 317 317 317 317 317 317 317 317 317 317 317 317 317 317 317 317 316 316 316 316 317 318 318 318 317 317 317 316 316 315 316 317 317 319 320
323 324 320 322 325 323 318 316 316 315 315 315 315 315 315 314 315 317 317 320 324 327 332 333 332 331 329 327 326 324 323 323 322 321 320 319 318 318 319 319 319 319 318 318 318 317 317 317 317 317 317 316 316 316 316 316 316 316 316 317 317 317 317 317 317 317 316 316 316 315 316 317 317 317 316 316 316 315 315 315 315 316 318 319 320 320
322 321 320 321 322 321 318 316 317 316 315 315 315 315 316 315 317 320 319 320 325 329 334 331 330 331 329 326 325 324 322 322 321 319 319 318 318 318 318 319 318 318 318 317 317 317 316 316 316 316 316 316 315 315 315 315 315 315 315 316 316 316 316 316 316 316 315 315 315 315 315 316 317 316 316 315 315 315 315 315 316 317 318 319 319 319
322 321 321 320 320 320 318 315 318 319 316 315 315 317 319 317 317 321 324 325 324 325 330 331 330 330 329 326 325 323 322 321 319 319 318 318 318 318 318 318 318 317 317 317 316 316 316 315 315 315 315 314 314 314 314 314 314 314 315 315 315 316 316 315 315 314 315 315 314 314 315 315 316 315 315 315 314 315 315 316 317 318 318 318 319 319
321 323 323 322 323 325 323 319 322 325 323 319 316 317 322 323 324 330 336 334 329 329 330 330 330 329 328 326 324 322 320 320 319 318 318 318 318 318 318 318 317 317 317 316 316 315 315 314 314 313 313 313 313 313 313 313 313 314 314 314 314 315 315 314 314 314 314 314 313 313 314 314 314 314 314 314 315 315 315 316 317 318 318 318 318 319
323 327 325 323 324 325 325 325 326 330 329 324 323 325 330 332 332 335 336 333 332 331 329 328 328 327 325 323 321 320 319 319 318 318 318 317 317 317 317 317 317 316 316 315 315 314 313 313 312 312 312 312 312 312 312 312 312 313 313 314 314 314 314 313 313 312 313 313 312 312 312 312 312 313 314 314 315 315 316 316 317 317 317 317 317 318
326 328 325 324 325 325 326 327 327 329 330 327 327 327 330 333 332 331 332 331 330 329 327 327 327 324 322 320 319 319 318 318 318 317 317 317 317 317 317 316 316 316 315 315 314 313 312 312 311 311 311 311 311 311 311 311 311 312 312 313 313 313 312 312 312 311 312 312 312 312 312 311 311 313 313 314 314 315 315 315 315 315 316 316 316 317
324 327 325 325 328 326 326 329 331 331 330 330 328 324 325 331 332 330 330 329 328 327 327 327 325 321 320 319 319 319 319 318 317 317 317 317 317 317 316 316 316 315 314 314 313 313 312 311 311 311 311 311 311 310 310 310 311 311 312 312 312 312 312 311 311 311 311 311 311 312 312 311 311 312 312 313 313 313 313 313 313 314 314 314 314 315
322 327 327 326 329 327 325 330 334 331 328 327 324 321 322 327 328 326 324 324 323 323 323 323 321 318 318 319 318 318 317 316 317 317 317 317 316 316 316 315 315 314 313 313 313 312 311 310 311 310 310 311 310 310 310 310 310 310 311 311 311 311 311 311 310 310 310 311 311 312 312 312 311 311 312 312 312 312 312 312 312 312 312 313 313 313
325 327 326 326 328 327 326 329 331 328 325 324 322 320 322 321 321 320 319 318 319 319 319 319 318 317 317 316 315 313 312 313 315 316 316 316 316 315 315 314 314 313 313 312 312 311 310 310 310 310 310 310 310 310 310 310 309 309 310 310 310 310 310 310 309 309 309 310 312 312 312 311 311 310 311 311 312 312 312 312 312 311 311 311 311 312
326 327 325 324 326 326 326 328 328 324 322 321 320 321 323 321 321 322 320 318 317 317 317 317 316 315 313 312 311 311 312 313 313 314 314 315 315 314 314 313 313 313 312 311 311 310 310 310 310 310 310 310 310 310 310 310 309 309 309 309 309 309 309 308 308 308 310 311 312 312 312 311 311 310 310 310 310 310 310 310 311 311 311 310 310 311
323 325 325 323 323 325 325 324 323 322 322 321 321 322 324 323 322 323 321 318 317 316 316 315 313 312 311 310 310 311 312 313 312 311 312 313 313 313 312 312 312 312 310 310 309 310 310 310 310 310 310 310 310 310 310 309 309 308 308 308 309 308 308 308 308 309 310 311 312 312 312 311 311 310 310 309 309 308 308 309 310 310 310 310 309 310
323 325 326 324 321 322 324 323 322 323 323 323 323 323 323 321 319 318 319 318 316 315 314 312 311 310 309 309 310 311 313 313 311 309 309 310 311 311 311 311 311 309 308 308 309 309 310 310 309 309 310 309 309 309 309 308 308 308 308 307 307 307 307 307 308 308 309 310 311 311 311 310 310 309 309 309 308 307 307 308 308 309 310 310 309 310
325 327 329 326 322 322 325 325 323 323 323 323 324 323 322 319 318 320 323 321 314 312 311 310 309 310 309 309 310 312 314 313 311 308 308 309 310 310 309 309 308 307 307 308 309 309 309 309 309 309 309 309 309 308 308 307 308 307 307 307 307 307 307 307 307 307 307 308 308 309 309 308 308 308 307 307 307 307 306 306 307 308 309 309 310 310
325 328 328 325 323 323 324 324 322 322 323 322 323 322 321 318 318 323 328 323 314 310 310 309 309 309 309 310 311 313 314 312 309 307 307 308 309 308 308 307 307 307 308 308 308 308 308 308 308 308 308 308 308 307 306 307 307 306 306 306 306 306 306 306 307 306 306 306 306 306 306 306 306 306 305 305 305 306 306 305 306 307 308 308 309 310
322 324 324 324 324 323 323 323 321 321 322 321 321 320 318 319 322 325 326 320 312 310 310 309 308 309 309 310 311 310 310 309 308 307 307 307 308 307 307 307 307 308 308 307 307 307 307 308 308 308 308 307 307 306 306 306 306 306 306 306 306 305 305 306 306 306 306 306 306 305 305 304 303 303 303 303 302 303 304 305 305 306 306 307 307 308
320 321 321 323 324 322 322 322 321 321 320 319 319 318 317 322 325 323 319 314 311 310 310 308 308 309 309 309 309 308 308 308 307 307 307 307 307 306 307 307 307 307 307 307 307 307 307 306 307 307 306 306 306 306 306 305 305 305 305 305 305 305 305 304 304 304 305 305 304 303 302 301 300 300 300 300 300 301 303 304 305 305 305 306 306 307
320 322 321 321 322 322 322 321 322 322 319 317 318 319 319 322 321 316 313 312 311 311 310 309 309 309 308 308 308 307 307 307 306 306 306 306 306 306 307 307 307 307 307 307 306 306 306 306 306 306 305 305 305 305 305 305 304 305 305 305 305 305 305 304 304 303 303 303 303 301 300 299 298 298 299 299 299 300 301 302 302 303 303 304 305 306
320 322 321 318 319 322 323 320 320 320 317 316 318 318 317 317 315 312 312 312 311 310 310 309 309 309 309 308 306 306 306 306 306 306 306 306 306 307 307 307 307 307 307 306 305 305 305 306 305 305 305 304 304 304 304 304 304 304 304 305 305 305 304 304 303 303 303 303 302 302 301 300 299 298 298 298 298 299 299 299 299 300 300 301 302 303
319 320 319 317 316 319 320 318 317 317 315 315 316 315 314 314 313 312 312 311 310 310 309 308 308 308 308 307 306 305 306 306 306 306 306 306 306 307 307 306 307 306 306 305 305 304 305 304 304 304 304 304 303 303 303 303 303 303 303 304 304 304 304 303 303 303 303 303 302 302 302 301 300 299 299 298 298 298 298 298 298 298 298 298 299 300
316 315 315 316 316 316 317 316 315 315 315 314 314 314 313 313 312 312 312 310 310 309 309 308 308 307 307 307 306 305 305 305 306 305 306 306 306 306 306 306 305 305 305 304 304 304 304 303 303 303 303 303 303 303 303 303 303 303 303 303 303 303 303 303 303 302 303 303 302 302 302 302 301 301 300 299 299 298 298 298 298 298 298 297 297 298
315 315 315 316 316 316 316 316 314 314 314 313 313 313 313 313 312 312 311 309 309 309 308 308 307 306 306 306 305 305 305 305 305 305 306 306 306 305 305 304 304 304 304 304 303 303 303 303 303 303 302 302 302 303 303 302 303 303 303 302 302 302 302 302 303 302 302 302 302 302 302 301 301 301 300 300 299 299 299 299 299 299 298 297 297 297
316 315 315 315 315 315 316 315 314 313 313 313 313 312 312 312 312 311 310 309 308 308 307 307 306 306 305 305 305 305 305 305 305 305 305 305 305 304 304 304 304 304 303 303 303 303 302 302 302 302 302 302 302 302 302 302 302 302 302 302 302 301 301 302 302 302 302 302 302 302 302 301 301 301 300 300 300 300 300 300 299 299 298 298 297 297
315 315 314 314 314 314 315 314 313 313 313 312 312 312 312 311 311 310 309 308 308 307 306 306 306 305 305 304 304 305 305 305 305 305 304 304 304 303 303 303 303 302 302 302 302 302 302 302 302 301 301 301 301 301 301 302 302 302 302 302 302 301 301 301 302 302 302 302 302 302 301 301 301 301 300 300 300 300 300 300 300 299 298 298 298 298
314 313 312 313 314 314 314 314 313 313 313 312 311 311 311 310 310 309 308 308 307 307 306 306 305 305 305 304 304 304 304 304 304 304 303 304 304 304 303 302 302 302 302 302 302 301 301 301 301 301 301 301 301 301 301 301 301 301 301 301 301 301 301 301 301 301 301 301 302 301 301 301 301 301 300 300 300 300 300 300 300 300 299 299 298 298
313 313 312 313 313 313 313 313 312 312 311 311 310 310 310 309 309 308 308 307 307 307 306 305 305 305 304 304 304 304 304 304 303 303 303 303 303 303 302 302 302 302 302 302 301 301 301 301 301 300 300 301 301 301 301 301 301 301 301 300 301 301 301 301 301 301 301 301 301 301 301 301 301 300 300 300 300 300 300 300 300 300 299 299 299 298
Wind_Speed
14 6 7 8 7 9 10 10 7 7 11 12 8 6 8 8 8 11 11 11 16 12 10 12 11 12 14 11 6 11 21 23 26 25 21 24 26 29 31 30 29 26 23 20 17 16 16 15 14 14 14 14 14 13 13 14 14 13 13 13 14 14 14 13 12 12 12 11 10 9 8 7 7 7 7 8 8 9 9 10 12 12 12 12 12 11
14 8 8 9 8 10 11 10 8 9 12 13 9 6 7 6 8 13 11 12 16 9 10 13 10 11 13 9 6 9 11 19 25 23 22 25 26 29 31 31 30 27 24 21 18 17 16 15 14 14 14 14 13 11 10 10 11 12 11 11 13 14 14 13 12 12 11 10 9 8 7 7 8 9 8 8 9 8 8 9 10 12 11 12 13 12
10 9 9 10 9 9 9 10 11 11 11 11 8 5 6 6 7 12 10 14 16 7 8 13 9 9 11 8 9 10 8 20 30 30 29 31 29 29 32 32 31 28 26 22 19 17 16 15 13 13 13 12 12 10 9 9 9 9 9 10 12 12 12 12 11 10 9 9 9 8 9 9 9 10 9 8 9 8 7 8 10 11 11 11 12 12
7 7 9 10 8 8 8 10 13 12 10 8 7 5 6 8 7 8 6 14 16 7 7 12 8 5 6 5 10 14 15 20 29 32 31 32 32 31 33 33 32 30 28 24 20 18 16 15 14 14 14 14 13 11 10 10 9 7 7 10 13 14 13 12 10 9 8 9 9 9 9 9 9 8 8 8 8 8 7 8 9 10 10 9 10 11
6 6 11 11 10 12 11 11 12 10 8 9 9 7 7 10 11 9 5 14 14 5 5 9 5 3 4 3 7 12 19 20 26 30 27 28 30 30 31 31 31 30 28 25 22 21 19 18 18 16 16 16 14 12 10 8 7 6 8 11 13 13 12 11 10 9 8 8 8 8 7 7 8 7 7 6 7 8 8 8 9 10 11 10 9 10
7 10 16 14 12 14 13 11 12 10 7 9 10 10 12 12 13 11 3 9 8 4 4 7 5 5 3 6 7 7 13 16 21 26 24 26 27 27 28 27 27 27 26 25 25 23 21 20 19 18 16 14 12 10 8 7 7 9 10 12 12 11 10 9 8 8 8 9 8 8 8 8 8 6 6 6 6 7 8 9 10 11 11 11 10 9
7 13 17 15 14 16 14 11 12 11 7 7 8 10 14 14 13 14 7 4 5 5 6 6 7 3 3 2 5 8 14 14 16 19 21 25 26 26 27 26 25 25 24 25 25 24 22 20 20 17 14 11 10 9 8 8 8 9 9 9 9 9 8 7 7 7 7 6 5 7 7 7 7 6 4 5 6 7 9 10 10 11 11 12 12 11
8 13 16 17 16 13 12 11 11 12 8 6 7 10 12 12 14 14 9 4 5 5 6 5 7 4 1 3 3 10 17 15 14 14 16 21 24 25 26 26 26 25 24 24 24 22 20 19 18 16 13 12 11 10 9 8 8 7 7 6 6 6 6 5 5 5 6 5 4 5 5 4 6 5 4 4 6 7 9 10 10 11 12 13 14 13
10 13 13 17 15 10 10 10 11 13 9 6 7 10 11 11 12 10 7 5 6 6 5 5 6 5 2 5 3 8 14 15 14 13 13 17 22 24 26 26 26 26 25 24 23 21 20 18 16 15 14 14 13 12 10 9 9 8 7 7 6 7 6 5 6 6 5 4 4 4 4 4 4 5 5 6 7 8 9 10 11 12 12 13 14 14
10 16 15 14 13 9 10 11 12 13 8 6 9 11 9 8 7 5 4 4 3 6 5 7 6 5 2 5 5 6 8 12 11 10 12 17 21 23 25 26 26 26 25 23 23 21 20 18 17 15 15 14 13 12 11 10 10 10 9 8 7 7 6 5 6 5 5 4 3 4 4 4 4 5 6 7 9 9 10 11 12 14 14 14 14 14
11 20 19 11 12 11 10 11 14 14 8 7 10 10 7 6 4 2 3 2 2 2 6 8 9 7 3 5 6 4 8 16 13 10 13 16 21 23 23 25 26 26 24 23 22 21 19 18 17 16 15 14 12 11 11 10 10 10 10 8 7 6 5 5 5 5 6 6 5 5 4 4 5 5 7 7 8 9 9 10 11 13 14 14 14 15
11 16 14 9 13 15 11 9 12 15 10 7 8 7 3 5 2 1 0 2 2 3 6 7 10 7 4 4 4 2 11 21 17 15 16 15 20 23 23 24 26 25 24 22 21 19 17 17 16 15 14 12 11 9 9 9 9 8 7 6 5 4 5 5 6 6 6 6 6 6 6 6 7 7 8 8 8 8 9 9 9 10 12 13 14 14
9 9 10 9 11 14 12 7 8 11 9 6 6 5 4 4 2 3 2 2 3 4 6 7 7 4 3 3 4 3 13 17 16 19 22 20 22 24 24 25 25 23 23 21 20 18 16 15 14 13 12 10 9 8 7 7 7 6 6 5 3 3 3 3 4 5 6 7 7 7 7 8 9 9 9 10 9 8 8 9 10 10 11 12 12 13
6 5 12 13 8 8 11 7 6 8 7 8 7 5 6 4 3 4 3 2 3 4 7 10 8 3 3 1 4 7 14 16 19 24 26 26 26 26 26 26 24 22 21 19 18 17 15 13 12 10 8 7 7 6 6 7 7 7 6 5 3 2 1 1 2 2 3 4 5 6 7 9 10 10 10 10 10 10 10 10 10 11 12 12 14 14
7 5 10 13 5 4 8 6 6 7 6 7 7 5 5 4 4 3 3 3 4 5 7 9 6 2 3 3 5 9 18 21 24 25 27 29 28 28 27 26 24 21 19 17 16 15 13 11 10 9 7 6 4 4 5 5 5 5 5 4 2 1 0 1 2 4 4 4 3 4 7 8 8 9 9 8 8 9 10 11 11 11 12 13 15 16
8 6 7 12 8 6 8 7 7 9 6 5 6 6 5 5 4 3 4 5 4 4 4 4 2 1 3 4 6 10 17 20 22 24 26 26 27 28 26 24 24 21 19 18 17 15 14 12 9 8 6 4 2 1 1 1 2 3 2 2 2 3 1 2 3 3 3 4 2 4 7 8 8 8 8 8 7 8 9 9 10 10 11 12 13 15
7 5 7 13 11 11 13 8 5 8 6 4 5 6 6 5 4 3 3 2 4 2 1 1 3 4 3 3 5 8 11 14 16 19 21 23 24 25 23 23 24 22 20 18 17 16 14 12 8 7 6 5 4 4 3 4 4 3 4 5 4 3 2 3 3 2 1 2 3 6 8 9 9 7 6 6 7 8 8 7 8 9 10 11 12 14
6 3 7 14 11 15 19 10 4 4 4 4 5 5 4 4 4 3 3 1 3 2 1 2 5 7 4 2 4 7 8 10 12 14 17 20 22 22 23 25 25 22 20 18 17 15 14 12 10 8 7 7 6 4 4 5 6 7 7 6 5 5 4 3 4 4 4 5 6 7 8 8 7 6 5 6 8 9 8 8 8 9 10 11 11 14
5 2 5 14 12 11 15 9 5 9 10 5 5 5 5 5 5 3 3 3 4 3 1 3 4 5 4 4 9 12 11 11 11 13 14 15 18 21 23 25 25 22 21 19 16 14 14 13 11 8 6 6 6 4 6 6 6 6 5 5 6 5 4 4 5 8 10 11 12 11 10 9 8 7 8 9 10 11 11 10 10 11 12 11 12 14
3 2 2 11 14 10 8 6 5 9 10 8 4 4 5 4 3 4 3 4 4 3 3 4 2 4 3 5 11 14 14 15 13 13 13 14 18 21 23 25 24 22 21 19 17 16 15 13 11 9 8 8 7 7 8 7 6 6 6 6 5 5 6 8 9 12 15 17 17 14 13 12 12 11 10 12 13 14 14 12 11 12 13 13 14 15
2 2 1 6 12 10 6 7 10 9 7 7 5 6 6 5 4 3 2 3 5 3 3 4 2 4 2 4 11 12 11 13 13 12 12 16 20 22 23 24 23 22 21 18 18 17 15 13 11 9 9 9 9 9 8 8 10 12 11 8 6 9 11 14 15 16 17 17 16 17 18 17 16 14 13 14 15 15 15 14 13 13 13 13 14 15
2 2 2 3 8 8 6 10 12 10 8 7 4 5 6 5 5 3 2 3 4 4 4 5 4 3 3 2 7 10 9 10 13 14 13 17 21 21 22 24 24 23 20 19 18 17 15 13 10 8 10 11 10 9 9 9 10 10 9 6 8 11 16 17 17 16 15 14 16 19 20 19 17 15 13 14 14 15 16 15 15 16 16 15 14 14
5 3 2 2 5 5 5 10 14 13 11 9 6 4 5 5 5 5 3 4 3 3 4 5 3 2 4 3 7 12 12 14 17 18 16 17 20 23 24 24 24 22 22 21 18 15 15 13 10 10 12 12 11 10 9 8 8 8 7 8 10 13 17 18 17 14 12 13 14 17 18 18 16 14 13 14 15 15 16 16 17 18 19 18 18 16
6 2 2 3 3 4 5 7 11 13 11 9 7 5 3 4 6 5 3 4 3 4 4 4 2 0 4 3 12 18 18 20 21 21 21 20 21 24 24 23 23 24 23 19 16 16 15 13 11 12 12 11 11 10 8 8 10 10 10 11 13 13 15 17 16 13 13 14 14 15 16 15 15 14 14 16 17 16 16 17 19 20 20 19 19 18
7 3 3 4 3 4 6 5 7 10 9 5 5 8 6 4 7 6 2 2 1 5 5 5 1 2 1 3 13 19 17 17 19 22 23 23 23 23 23 23 24 24 19 15 16 17 15 13 13 12 11 10 11 11 8 8 10 10 11 12 14 14 14 15 15 15 15 15 15 15 16 14 13 15 16 17 18 17 17 19 20 21 21 20 19 19
6 3 4 5 5 6 7 5 6 8 6 2 3 9 11 8 9 9 4 2 3 5 3 6 4 4 5 7 11 14 14 14 17 22 23 22 23 24 24 23 22 20 18 17 18 17 15 14 13 12 11 11 10 9 8 8 9 12 13 14 15 15 14 12 12 14 16 17 16 17 17 14 14 17 18 17 17 18 19 21 21 22 22 21 21 19
3 2 4 4 5 6 4 3 3 5 4 2 2 6 11 13 10 8 5 4 5 2 3 5 11 12 10 11 12 12 13 13 14 19 22 22 23 23 23 22 20 19 19 17 17 16 15 14 12 9 11 14 12 9 9 10 13 14 14 14 14 14 12 10 10 11 14 16 17 18 17 13 14 17 16 16 18 19 20 21 21 22 23 23 23 21
3 3 4 2 3 5 4 4 3 4 4 3 4 5 9 14 13 7 6 6 6 5 2 5 16 17 12 13 14 13 14 13 12 17 22 23 23 23 22 23 22 20 19 17 16 16 15 14 13 11 11 12 12 11 12 14 16 16 15 14 13 12 11 10 11 11 12 14 17 19 17 12 11 13 14 16 18 19 21 21 22 22 23 23 23 21
5 4 5 4 5 3 4 4 1 1 4 5 8 9 8 12 14 8 6 7 7 7 6 10 16 15 13 13 13 13 14 15 17 21 24 24 24 23 22 22 22 21 19 18 17 15 14 14 15 15 12 11 12 12 13 15 15 14 14 13 12 12 11 11 13 13 12 13 17 19 17 13 10 12 14 17 19 20 21 21 21 22 22 21 21 20
6 1 3 3 2 4 2 0 7 7 3 2 8 10 6 5 7 6 5 5 7 8 13 17 13 8 8 10 11 14 19 22 25 26 26 25 24 23 22 23 22 21 20 19 18 17 15 15 15 15 14 12 13 14 15 15 14 13 13 14 13 12 11 12 14 13 12 13 16 17 17 16 14 15 17 19 20 21 21 20 20 21 22 22 21 19
7 1 1 4 2 4 5 6 9 10 9 8 4 2 6 8 8 9 9 10 11 10 14 19 15 6 5 11 15 20 24 25 24 24 24 24 24 23 22 23 23 21 20 20 18 17 16 16 14 14 15 14 14 15 15 15 14 13 14 17 16 14 13 14 14 13 13 15 17 16 17 18 18 19 21 22 22 21 20 20 21 22 23 24 23 21
6 1 1 4 4 2 6 8 7 8 12 12 10 10 8 7 8 7 6 9 14 16 15 15 11 5 6 14 19 20 22 22 21 22 24 23 23 22 23 24 23 22 21 19 18 16 16 15 14 13 14 15 15 16 15 14 15 15 15 17 17 15 15 16 16 16 16 17 18 18 18 19 20 22 22 23 22 22 22 22 22 23 24 25 25 24
6 4 2 3 4 2 5 4 4 6 8 6 6 8 9 3 9 11 8 6 10 15 14 10 8 8 12 17 17 15 15 17 18 21 24 24 23 23 24 24 23 22 22 21 19 17 15 15 14 13 14 15 16 17 15 14 15 16 15 16 16 14 14 17 18 17 16 16 18 20 20 19 20 22 23 23 23 23 24 24 24 25 26 27 27 27
6 6 5 3 4 1 5 3 5 5 3 2 4 5 7 2 14 15 9 8 7 7 8 9 10 12 14 16 16 14 12 14 17 19 22 25 26 25 24 24 23 23 21 19 18 17 15 15 14 14 14 14 15 15 15 14 14 14 14 14 14 13 14 17 18 18 16 15 18 21 21 20 20 22 23 23 23 24 26 26 26 26 26 27 27 28
8 6 4 3 4 1 2 4 5 2 2 3 7 7 3 6 17 21 14 10 8 10 15 17 15 13 13 17 21 23 22 22 22 21 21 23 26 27 26 24 22 21 18 16 17 16 15 15 15 16 16 16 15 13 14 13 12 12 14 14 13 12 13 15 17 17 16 16 17 20 21 20 20 21 22 22 23 25 27 27 27 27 26 26 26 27
8 6 3 3 4 2 2 4 4 3 2 1 5 6 4 6 9 14 14 10 7 9 15 16 13 12 16 21 25 28 31 30 27 24 22 22 23 25 26 25 22 20 17 16 16 16 16 16 18 18 17 16 15 13 12 12 12 12 14 15 14 13 14 16 17 18 18 17 18 19 20 21 21 21 22 23 24 26 27 28 28 28 26 25 25 25
7 6 4 4 3 3 3 3 2 1 1 1 2 4 2 2 3 3 8 6 4 6 12 15 14 13 17 22 25 29 34 31 21 17 19 21 22 23 24 22 20 19 17 16 17 18 19 18 18 17 15 14 13 13 14 14 14 14 13 13 14 15 16 18 19 21 21 19 18 18 19 20 21 21 22 23 24 26 26 27 28 29 28 27 26 25
5 4 5 5 2 2 5 3 2 3 1 2 4 4 5 3 7 6 6 4 3 7 13 15 15 15 17 20 25 29 29 20 8 7 16 20 21 22 21 18 18 18 17 17 19 20 19 17 15 13 12 12 12 14 16 14 14 16 14 13 14 17 19 20 20 22 22 21 19 18 18 19 19 20 21 22 22 23 24 25 26 28 28 28 26 24
8 4 4 6 3 3 6 3 2 3 2 3 5 3 4 3 8 5 5 2 4 11 17 15 15 18 19 21 26 25 18 10 4 8 17 20 19 20 20 18 18 18 17 18 20 18 16 17 17 14 12 13 14 15 15 14 14 16 16 14 16 19 21 20 20 22 24 24 22 20 20 20 20 20 21 21 20 19 21 22 23 25 27 27 27 25
7 5 4 6 4 3 5 3 2 2 2 2 3 5 4 3 2 3 2 3 8 17 22 19 17 20 22 25 25 14 6 7 12 16 20 21 20 21 20 19 19 19 19 19 19 17 17 17 16 14 13 13 14 14 15 16 16 17 16 15 17 21 21 19 19 21 23 23 23 23 23 23 22 21 21 21 19 18 18 19 19 21 23 26 27 27
4 3 3 4 5 5 6 4 2 0 1 2 1 2 1 3 4 3 2 7 16 22 24 23 22 22 24 24 17 6 6 16 25 26 24 23 24 22 20 19 20 19 18 17 16 16 16 14 12 12 12 13 14 14 14 15 18 19 17 16 18 20 19 18 18 20 20 20 22 23 24 24 23 23 22 21 20 18 18 18 18 19 20 22 24 26
0 2 2 1 3 4 4 4 2 1 1 2 3 1 5 4 2 2 4 14 25 26 24 25 25 25 24 19 13 15 22 29 32 29 26 25 24 21 20 20 20 19 18 17 15 14 14 13 13 15 17 17 16 13 11 14 18 19 18 17 17 18 18 17 18 18 18 19 21 23 24 25 24 24 23 22 21 21 21 20 20 20 20 20 21 23
1 2 2 1 2 3 3 3 3 2 2 1 2 3 3 2 6 10 16 22 26 26 25 26 25 25 23 20 20 28 34 35 31 28 26 24 22 21 21 22 21 19 18 17 15 13 12 15 18 19 18 17 14 11 11 15 17 18 19 19 16 15 16 17 19 20 20 20 22 24 26 27 27 27 26 25 25 26 27 27 27 27 26 24 23 23
2 1 3 0 1 2 3 2 2 2 1 5 6 4 5 10 17 22 24 23 23 24 25 25 25 25 25 26 30 34 35 34 31 27 26 25 23 24 24 22 19 18 16 16 16 14 15 18 20 19 17 16 14 13 13 15 16 16 18 18 16 15 15 16 18 20 22 22 23 24 25 27 28 28 28 28 29 30 32 33 33 34 34 33 31 29
2 3 6 4 2 3 4 2 2 6 12 17 19 18 20 23 24 25 26 24 24 24 25 27 29 28 28 32 35 33 33 34 31 28 27 26 25 25 24 20 19 20 20 19 17 16 18 20 20 19 20 19 17 17 17 17 17 17 16 15 14 14 14 16 18 19 20 22 23 24 24 25 27 28 28 28 30 31 33 34 35 36 36 36 36 35
3 6 8 6 4 5 7 7 8 15 20 23 25 25 27 27 25 25 26 25 24 26 28 30 31 31 33 36 36 33 32 34 32 28 26 26 25 23 22 20 20 21 21 19 16 17 20 20 19 20 23 20 17 17 17 16 15 16 16 15 13 13 13 15 17 17 18 19 21 23 24 25 26 27 28 29 30 32 34 36 36 37 37 37 37 36
1 4 6 4 4 4 5 5 9 15 19 23 26 26 27 27 25 24 26 26 27 28 29 30 31 32 33 34 36 36 33 32 32 30 28 26 24 22 21 22 21 19 18 18 19 19 19 17 17 20 21 18 16 17 17 15 15 15 15 15 15 16 15 15 15 15 16 17 18 20 23 25 25 26 27 29 30 32 34 35 37 37 38 38 37 36
3 6 7 5 3 4 4 7 14 20 21 22 24 24 24 25 24 24 26 27 28 29 30 31 32 32 31 32 35 37 34 32 33 32 28 25 24 22 22 22 19 17 18 20 21 20 18 18 19 20 17 16 16 17 18 17 17 16 15 15 17 18 18 16 15 14 15 16 17 18 21 24 25 26 26 28 29 30 32 34 35 38 39 39 38 38
6 7 5 5 6 6 6 10 17 19 16 17 21 23 23 25 26 27 28 29 30 31 31 30 30 32 33 33 34 35 35 33 31 30 28 26 25 24 24 23 22 22 23 23 21 19 19 21 21 19 17 16 15 16 16 17 17 17 17 16 16 17 17 16 16 16 14 14 15 17 19 22 24 25 26 27 28 29 30 31 32 35 37 37 37 38
7 7 6 7 7 5 4 8 12 11 7 11 21 25 25 27 29 30 30 30 30 31 31 30 30 31 32 33 33 34 35 33 29 27 27 26 26 26 25 26 26 25 24 22 20 19 20 21 20 19 18 16 15 15 17 17 16 16 15 14 13 15 16 16 16 17 17 16 16 16 17 20 22 24 25 26 27 27 28 28 29 30 32 33 34 35
5 5 6 6 6 6 10 14 16 14 12 16 24 27 27 28 29 30 30 29 29 30 31 32 32 31 30 30 31 32 33 32 30 28 27 27 28 28 26 24 24 22 21 21 19 19 20 21 20 20 20 18 17 18 18 18 17 15 15 14 13 14 17 18 18 19 19 18 17 17 18 19 20 22 24 24 25 25 26 26 26 27 28 29 29 30
Wind_Direction
201 209 219 214 198 200 211 219 215 209 232 244 236 216 205 210 229 246 248 189 168 177 206 215 209 218 231 240 262 188 161 141 140 139 137 139 132 131 134 134 135 130 125 128 135 142 144 140 138 142 146 146 144 142 144 147 149 151 155 162 164 165 164 163 165 169 171 171 178 190 199 207 216 228 236 242 249 254 257 259 265 272 277 277 274 272
201 219 218 205 199 201 205 213 222 224 236 245 248 252 235 218 223 241 242 179 167 171 203 217 212 212 225 228 226 203 153 132 136 134 132 131 126 130 131 132 134 130 128 130 130 136 138 135 131 131 138 143 141 135 137 144 145 146 148 157 164 164 160 159 162 168 172 174 182 194 209 219 225 234 239 244 253 260 263 266 272 279 282 280 278 275
206 223 210 200 199 202 201 201 216 233 239 244 249 257 257 251 232 242 235 173 172 178 198 211 210 213 228 224 209 203 148 137 139 135 134 130 126 131 132 132 133 128 127 125 124 127 129 129 124 121 124 127 127 122 130 137 133 135 133 138 150 151 152 155 157 162 172 181 191 205 221 231 237 243 244 246 255 265 272 274 277 284 289 284 279 277
207 211 196 198 198 203 212 202 206 227 240 243 241 234 251 256 243 249 225 171 180 182 175 196 203 220 243 234 198 175 138 129 131 127 130 132 131 135 136 136 134 130 128 126 126 122 118 120 120 121 121 122 124 123 130 133 130 135 127 125 134 137 144 154 160 166 178 190 201 214 226 238 242 240 240 248 260 272 278 277 278 285 292 289 283 279
206 178 183 199 201 203 218 215 204 212 232 240 235 226 244 251 249 258 214 168 182 194 167 174 177 249 245 166 182 153 117 108 113 113 116 122 128 131 133 135 134 133 133 132 128 120 119 124 127 130 132 133 133 132 138 138 132 130 124 129 136 142 151 160 170 180 192 203 208 208 199 203 206 202 221 246 264 274 280 283 285 290 296 298 292 282
210 178 183 202 207 204 214 221 210 200 214 241 235 227 239 248 257 269 238 140 158 222 206 152 150 262 262 143 168 139 104 105 109 109 113 117 121 125 126 130 131 132 133 133 129 126 130 135 136 139 141 143 140 136 139 132 127 128 131 140 144 149 158 163 175 185 194 199 192 177 163 163 169 179 212 241 263 274 282 289 295 298 300 303 298 288
210 187 185 199 206 205 211 219 216 201 196 234 229 222 236 247 260 272 269 135 145 212 210 148 143 236 313 134 165 121 106 114 114 114 121 121 122 126 128 130 132 131 131 131 131 131 133 137 138 136 135 138 137 133 133 128 133 139 138 143 146 151 156 156 166 174 174 173 160 151 148 157 167 178 218 259 282 286 285 289 297 302 302 302 298 293
201 200 190 194 203 205 210 213 213 204 197 224 224 223 236 241 247 263 272 226 173 187 207 167 130 125 254 234 187 121 113 114 115 117 121 122 122 124 127 131 131 129 129 130 133 134 133 134 136 135 129 126 127 130 134 131 130 132 132 138 145 145 139 127 128 134 128 113 117 130 128 145 165 177 217 272 289 289 288 288 296 301 300 300 298 295
190 212 197 186 200 209 208 207 206 206 206 213 222 232 236 234 237 249 269 239 165 147 215 207 138 115 217 234 187 134 125 118 118 121 119 119 118 118 120 125 126 127 129 130 132 134 134 136 138 140 136 131 134 140 145 145 141 134 130 136 141 136 130 126 123 119 112 107 118 137 147 161 173 193 218 245 262 273 283 287 291 295 296 296 296 294
187 217 213 185 196 209 202 203 204 210 211 198 224 246 245 240 238 230 251 259 140 136 204 217 168 134 213 227 180 166 144 126 120 118 117 116 114 113 115 119 123 126 128 129 130 131 132 134 138 140 141 142 146 152 154 153 152 149 143 145 153 152 150 158 158 156 157 158 157 164 186 201 204 221 233 243 254 265 274 281 284 284 287 288 290 290
194 210 222 206 193 199 201 201 202 215 212 176 214 251 268 264 244 185 226 264 75 176 218 204 175 159 211 210 181 197 147 132 131 125 120 116 113 112 113 116 120 122 123 125 126 127 126 128 135 142 147 149 149 156 162 161 161 161 154 148 156 170 177 188 194 188 188 192 192 197 213 225 229 243 256 261 268 275 275 278 280 282 286 288 289 289
206 199 217 220 195 187 194 204 199 213 213 171 204 230 268 296 303 108 348 85 113 252 243 199 172 163 192 221 254 283 134 135 139 136 132 127 120 118 116 116 119 119 119 120 121 123 123 123 130 139 145 150 154 162 169 170 169 169 168 163 171 201 218 228 230 222 220 220 217 219 227 233 240 251 260 265 270 277 281 284 284 284 288 291 292 291
224 198 198 221 217 187 185 205 195 206 210 185 199 186 181 268 271 187 218 133 167 232 233 194 175 162 161 226 299 62 122 133 131 130 131 128 124 121 118 117 119 120 119 118 120 124 125 121 124 133 140 151 164 175 186 197 197 191 188 185 197 246 254 259 260 242 230 231 235 241 243 243 249 255 259 263 264 265 272 281 285 286 288 291 296 298
233 221 194 207 235 193 182 190 182 198 202 192 201 163 157 197 202 204 203 161 193 224 210 183 172 180 136 28 341 80 106 111 112 119 122 121 120 118 118 118 118 117 117 117 119 122 126 125 126 132 139 153 173 188 204 219 224 216 203 191 193 249 303 14 353 309 262 258 262 264 262 258 259 260 260 261 264 264 265 271 279 287 293 297 300 301
206 228 199 194 203 182 192 194 175 185 191 199 204 167 155 173 167 191 168 154 210 207 186 173 167 199 128 58 7 80 98 100 103 108 110 112 114 115 116 117 116 114 113 115 117 120 125 127 127 128 129 140 162 191 210 218 221 212 194 187 197 238 318 336 340 340 359 13 354 304 284 274 271 274 273 270 269 269 269 270 272 279 290 297 296 295
205 222 194 181 176 179 208 219 179 173 191 215 198 171 189 194 154 164 168 155 175 170 158 156 128 57 103 73 43 77 96 101 105 109 110 111 114 115 114 115 116 116 116 118 119 119 121 121 122 122 117 122 128 150 227 223 228 212 157 103 74 69 34 319 339 1 27 43 10 290 292 295 296 300 298 291 285 281 279 279 280 283 291 297 297 296
197 217 185 173 179 193 207 227 189 166 178 194 199 194 198 200 160 143 185 145 102 119 190 153 116 105 109 80 67 87 100 108 114 113 113 116 117 117 118 119 120 122 123 123 121 119 117 113 111 106 100 96 81 60 48 45 41 50 71 68 58 58 37 2 19 53 345 315 279 280 299 310 315 322 317 306 304 303 300 298 300 300 297 297 299 299
173 196 196 181 184 193 194 212 264 233 203 162 193 210 175 198 216 147 147 111 92 122 218 147 140 146 159 157 131 130 121 119 124 119 116 120 121 121 123 124 125 127 127 124 121 119 114 108 105 102 101 104 94 73 59 58 56 60 62 58 46 37 40 29 11 3 349 338 323 319 328 333 335 344 342 333 331 328 324 318 316 315 308 300 296 293
177 173 211 189 179 176 177 185 263 260 250 213 181 185 157 185 226 185 154 162 143 146 121 106 146 172 184 174 160 159 154 145 136 128 126 127 127 127 127 127 129 128 124 120 116 115 113 111 108 95 91 105 102 75 70 74 72 72 69 66 57 29 12 17 13 20 24 15 4 357 357 358 357 353 345 344 349 349 345 336 325 320 316 310 302 296
184 156 236 190 167 152 155 167 211 235 248 247 212 185 181 178 183 175 177 169 147 152 146 125 165 227 231 179 172 169 162 153 144 136 135 133 131 131 130 130 131 126 120 119 119 117 114 111 106 98 101 111 107 93 84 75 58 49 51 65 56 16 23 46 47 41 30 14 4 3 2 358 355 353 352 359 8 9 7 360 345 328 318 311 306 301
153 133 259 191 164 156 166 186 203 207 214 232 221 193 200 195 161 166 211 182 143 149 156 135 188 248 267 181 176 167 154 148 141 134 132 133 133 133 132 131 126 121 120 122 120 114 109 108 111 115 120 117 107 101 86 65 54 56 61 62 29 25 54 60 50 42 30 14 4 4 1 354 352 1 12 19 20 16 13 11 4 351 335 322 312 304
138 143 169 209 181 177 188 187 196 208 210 216 216 194 190 172 147 146 239 214 150 154 159 144 185 248 317 273 167 144 136 133 127 124 126 131 130 127 126 125 122 121 122 117 112 109 112 117 118 115 114 111 105 97 85 73 71 72 70 47 22 49 68 60 49 47 35 16 4 359 355 353 0 17 28 28 22 15 8 4 3 358 347 337 329 319
117 122 154 212 211 201 205 187 184 202 218 222 229 209 167 153 143 129 179 210 202 200 160 118 147 237 327 323 131 123 124 125 123 126 127 126 123 119 119 122 122 121 116 110 110 116 122 117 108 103 103 101 97 93 90 82 72 64 51 32 38 66 70 55 49 47 30 10 357 348 348 356 13 29 33 28 20 11 1 354 354 352 342 334 330 323
121 111 148 182 219 230 241 201 179 194 213 218 226 216 165 164 165 147 165 181 188 212 160 92 81 157 339 19 116 120 123 124 127 132 128 121 118 118 120 123 120 114 110 112 119 124 123 113 107 109 103 95 93 92 93 82 66 59 52 44 48 61 63 53 44 35 20 6 354 346 349 4 20 27 30 26 14 2 354 349 347 345 338 332 327 321
164 158 137 155 180 203 220 207 184 203 215 209 208 208 210 198 172 182 228 110 172 233 167 118 117 157 88 94 116 120 123 124 128 131 126 123 123 123 125 124 117 111 111 119 123 121 116 111 110 107 97 92 94 86 83 86 75 64 56 50 48 53 58 51 38 28 17 6 359 359 5 18 24 23 26 21 4 355 354 351 347 343 340 337 332 326
171 153 133 153 177 186 193 196 190 199 208 203 186 197 207 212 188 190 205 117 206 241 149 120 134 127 124 124 118 121 127 128 128 127 123 123 124 127 128 125 118 112 111 113 114 113 109 107 108 103 91 91 93 82 74 84 81 67 56 51 48 49 49 40 31 29 20 9 6 9 16 29 31 26 23 11 357 355 357 353 350 348 345 344 344 340
135 152 158 154 182 191 193 209 185 167 175 193 202 201 210 219 209 177 169 188 191 173 55 126 139 132 137 142 133 131 133 131 129 126 122 122 125 129 129 124 117 113 111 110 109 109 108 106 106 105 96 90 86 74 67 75 75 67 58 56 53 49 42 31 25 25 19 10 7 10 20 33 36 30 18 1 356 360 359 356 354 353 352 351 353 354
84 170 207 265 239 209 209 223 187 175 195 195 215 236 221 217 216 179 165 193 166 118 55 156 143 138 150 154 146 144 139 131 128 125 123 126 131 132 128 122 117 114 113 114 113 112 112 106 101 101 96 88 80 70 69 74 73 67 63 60 53 45 36 25 19 16 14 10 7 12 21 31 35 29 12 1 4 4 2 1 359 359 358 356 357 360
96 173 214 264 281 274 227 225 107 140 224 201 205 232 236 217 210 189 178 190 163 144 161 160 146 140 149 153 145 142 137 130 127 126 127 130 132 132 128 123 121 120 120 120 119 118 113 104 98 95 91 88 85 77 72 73 70 68 68 62 52 48 39 22 16 16 16 15 12 15 25 34 35 24 13 13 15 12 9 9 7 6 4 0 359 359
91 201 208 172 277 330 320 337 44 36 345 255 215 227 245 225 189 147 140 143 120 122 136 135 124 112 130 139 131 128 127 125 125 128 130 133 135 136 133 128 125 125 125 122 119 116 110 104 99 94 89 88 87 79 73 70 64 61 65 63 54 48 34 16 14 19 21 22 20 21 28 34 31 26 24 25 23 19 17 18 19 19 17 14 8 0
91 251 248 109 89 346 3 38 52 57 52 39 8 18 72 85 95 102 112 108 95 99 120 122 112 87 105 115 115 121 125 125 126 129 132 137 141 141 134 129 129 128 125 122 118 113 108 105 102 94 90 91 87 78 74 72 64 58 63 64 55 39 23 16 21 29 31 29 26 26 33 35 33 32 32 30 27 25 25 26 28 28 27 26 22 15
104 138 319 78 94 346 354 35 57 69 66 51 23 13 33 80 97 95 99 113 122 124 122 118 117 126 131 118 115 120 125 127 130 133 137 143 145 141 133 131 132 129 125 122 119 116 111 106 101 94 91 93 88 79 75 75 69 62 64 64 54 35 21 22 30 38 41 37 29 28 36 40 39 37 33 31 30 29 29 29 28 27 27 26 24 23
118 123 121 107 105 344 325 13 59 62 58 36 4 344 321 340 94 77 37 52 117 132 135 139 144 146 138 127 122 126 129 131 135 140 144 146 143 137 134 133 130 126 123 122 122 121 117 109 101 96 95 95 90 82 78 79 74 67 66 65 56 40 27 28 34 39 43 41 33 31 36 41 42 38 33 31 32 33 33 31 26 24 24 22 20 19
124 131 140 126 109 256 292 357 56 65 82 262 279 294 297 16 96 89 53 38 66 96 111 119 127 134 133 129 127 127 121 119 129 139 144 143 138 133 131 129 127 125 124 125 126 123 121 118 109 100 96 91 87 83 79 79 77 74 74 68 57 47 36 32 34 37 39 43 39 35 36 38 40 40 34 30 32 36 36 32 28 25 24 22 19 16
126 130 133 108 107 165 300 51 79 112 188 239 283 299 328 84 92 89 71 47 62 93 103 107 118 126 120 116 117 114 108 106 111 120 129 134 133 131 130 129 132 134 130 129 130 129 127 120 102 91 89 84 81 83 81 78 76 78 77 65 50 41 34 30 33 34 38 46 45 38 35 35 35 37 36 31 31 36 36 33 30 28 27 24 20 16
132 127 114 95 105 111 24 63 116 193 200 22 317 325 45 66 71 79 69 40 45 102 113 112 115 114 110 112 115 114 113 109 103 102 112 125 131 132 133 133 137 142 139 136 135 129 121 107 90 85 90 86 80 79 76 69 64 69 74 65 51 40 33 32 34 36 41 49 49 40 36 35 33 35 37 35 32 33 34 32 30 28 28 28 23 19
125 125 117 94 93 115 98 71 82 98 90 77 304 289 323 335 304 82 85 62 43 100 120 119 115 114 117 119 120 119 117 111 97 87 100 119 133 136 135 135 141 144 141 135 125 112 105 99 91 89 92 85 75 67 61 58 61 67 72 65 52 41 34 35 39 42 46 51 49 43 39 37 34 32 33 34 34 34 33 32 29 28 28 29 27 24
85 124 137 112 74 97 107 97 68 85 197 195 179 247 282 204 172 142 95 89 72 95 115 122 122 126 129 127 129 128 121 113 100 93 105 118 133 136 134 136 140 139 133 125 114 104 99 95 91 91 89 79 71 65 61 64 74 74 66 57 50 42 37 39 46 50 51 51 50 48 46 44 40 37 34 33 34 35 35 33 31 30 30 32 33 30
50 60 103 103 103 109 107 111 114 122 236 230 155 180 283 206 166 129 76 115 145 117 118 121 127 135 138 139 141 140 131 124 157 142 124 125 133 134 131 130 130 128 123 115 105 100 102 102 99 100 95 84 81 77 71 75 84 77 63 55 51 46 43 44 49 53 53 51 50 49 48 48 46 44 42 37 33 34 37 38 37 36 36 38 40 39
35 28 67 95 114 114 103 103 112 146 253 302 120 164 234 253 133 88 65 192 161 140 137 137 140 144 145 147 151 151 144 152 155 144 136 136 135 131 127 125 125 122 114 104 100 104 114 115 111 109 103 93 90 85 78 79 80 72 63 58 53 50 50 49 49 53 52 50 50 48 47 45 44 43 44 41 35 34 39 42 42 43 44 45 46 46
30 37 64 103 111 96 97 110 106 227 238 307 324 206 211 46 82 103 232 179 148 143 146 147 147 149 150 154 155 129 112 144 144 138 136 135 130 128 129 128 124 119 110 104 107 113 116 113 108 100 93 93 95 91 84 83 81 74 68 62 57 55 54 51 50 51 50 47 46 46 45 42 41 39 40 41 38 35 39 44 46 47 48 48 49 48
282 62 46 92 114 101 97 110 95 44 190 224 290 7 65 66 172 198 142 138 139 141 146 148 151 154 153 151 140 121 128 139 139 133 133 133 130 132 135 128 119 115 111 109 110 113 110 106 99 91 87 90 95 95 88 83 81 77 72 67 63 60 58 56 54 52 50 47 45 46 47 45 43 41 40 42 44 43 46 48 49 51 51 50 50 50
202 109 103 53 91 104 79 89 115 169 212 229 333 350 30 90 170 138 115 123 134 138 142 148 153 156 150 138 130 131 134 136 135 133 135 136 136 136 130 120 114 114 113 110 110 113 114 107 98 92 91 91 89 87 86 85 84 82 78 74 71 66 61 60 58 56 56 54 51 51 51 49 49 49 49 51 53 55 55 55 54 55 54 52 52 53
344 97 146 221 336 106 103 122 193 219 85 85 91 97 98 114 131 129 120 123 132 137 141 142 145 151 147 136 132 134 134 135 136 138 138 136 134 130 121 115 116 120 119 118 115 111 110 105 95 91 99 101 90 80 81 86 88 85 81 79 76 70 66 63 59 58 58 57 55 54 53 53 53 54 55 57 59 59 59 58 57 57 55 53 53 53
5 95 115 97 48 97 105 141 153 81 75 87 100 107 108 113 123 127 124 125 131 137 139 136 138 146 147 139 135 135 135 136 137 139 138 134 130 126 122 122 128 130 128 126 119 111 110 105 94 93 102 99 85 76 79 87 89 85 83 84 81 74 72 69 63 60 59 57 57 56 55 56 57 55 55 57 59 59 58 56 55 55 54 53 52 51
116 108 98 94 103 88 67 63 82 82 80 88 99 106 111 115 121 123 123 125 130 137 140 138 139 144 144 141 138 136 137 138 138 139 138 133 130 131 130 128 130 130 128 122 115 113 114 106 96 99 101 93 83 83 85 88 88 83 81 81 78 76 77 72 66 63 61 61 60 58 56 57 58 58 56 56 57 57 56 53 52 51 51 51 50 50
165 100 84 102 137 103 67 66 87 91 91 94 98 104 110 115 119 121 124 128 133 138 141 141 141 142 142 141 139 137 138 140 138 137 137 134 134 137 134 130 129 130 127 117 110 111 112 106 105 108 102 94 96 101 97 91 89 88 86 79 75 80 84 78 71 69 67 65 64 60 57 57 58 58 57 57 57 56 54 51 49 48 47 47 47 48
134 106 90 90 91 82 102 113 98 94 98 102 104 108 113 117 120 122 126 131 135 137 138 139 139 139 140 141 139 137 138 140 139 138 139 139 138 134 131 131 133 132 126 117 113 114 111 108 112 111 101 93 100 107 106 99 96 96 94 85 80 83 87 85 81 78 72 68 67 64 59 58 58 57 57 57 56 55 53 50 48 48 47 46 45 46
105 111 97 102 104 92 103 116 105 96 94 102 109 115 120 124 124 124 128 132 133 133 134 136 139 140 140 140 140 138 138 140 140 140 140 142 140 134 128 126 127 125 121 118 117 118 114 110 109 106 99 92 94 98 99 97 97 98 98 93 88 85 86 87 86 84 78 71 69 66 60 58 57 56 55 55 55 54 52 50 49 49 49 47 45 45
77 110 107 109 124 133 140 136 124 112 102 110 115 118 123 128 128 127 130 132 132 133 135 135 135 138 139 140 142 141 139 140 142 142 141 144 145 139 130 125 123 123 122 121 120 119 116 113 111 110 106 98 92 91 91 91 94 94 89 89 92 88 86 88 89 87 83 77 70 65 61 59 57 56 55 54 53 52 51 50 49 48 47 46 45 46
55 162 173 142 137 156 151 136 124 117 117 119 120 122 126 130 129 129 131 133 134 137 140 138 137 139 139 141 143 142 140 141 143 140 138 141 143 138 130 128 126 124 124 124 121 120 120 114 109 110 109 102 101 105 102 95 90 82 75 82 97 99 93 92 93 91 88 83 77 68 63 61 60 58 56 55 53 52 52 51 49 48 45 43 42 44